CAPE
0 0 0 0 0 0 1 3 5 3 3 4 2 3 6 6 6 6 4 7 0 0 0 0 0 189 59 4 2 0 0 0 0 0 0 0 0 0 0 0 0 0 0
0 0 0 0 0 1 0 1 3 3 3 6 3 5 6 6 5 4 4 4 7 0 0 0 0 6 1 3 3 1 0 0 0 0 0 0 0 0 0 0 0 0 0
0 0 0 0 2 1 2 2 3 3 2 3 3 3 3 6 3 4 4 3 4 6 1 0 1 11 2 3 2 1 0 0 0 0 0 0 0 0 0 0 0 0 0
0 0 2 4 5 5 4 3 4 3 1 7 3 3 5 5 4 3 5 2 2 4 10 6 0 17 1 3 3 1 0 0 0 0 0 0 0 0 0 0 0 0 0
0 0 3 5 7 5 3 1 1 3 3 3 3 3 5 7 3 5 4 3 5 3 10 11 2 24 6 2 2 1 0 0 0 0 0 0 0 0 0 0 0 0 0
0 0 2 5 5 6 7 2 4 5 0 2 1 2 2 3 5 10 7 4 4 4 5 13 8 13 14 2 0 1 0 0 0 0 0 0 0 0 0 0 0 0 0
0 0 1 4 8 9 10 6 3 6 8 1 2 5 1 2 6 7 4 3 3 2 4 2 22 13 15 12 0 0 0 0 0 0 0 0 0 0 0 0 0 0 0
0 0 0 1 3 2 12 12 8 2 7 3 0 7 5 3 5 4 5 2 4 2 3 3 10 1 21 2 2 0 0 0 0 0 0 0 0 0 0 0 0 0 0
0 0 0 5 2 2 1 1 10 3 2 10 1 2 7 2 3 4 3 2 4 2 4 6 6 0 2 1 1 2 0 0 0 0 0 0 0 0 0 0 0 0 0
0 0 1 3 7 7 2 1 5 5 1 2 5 2 4 1 2 3 2 2 3 4 3 1 0 8 0 1 2 1 1 1 0 0 0 0 0 0 0 0 0 0 0
0 0 0 2 5 9 4 12 1 5 1 2 4 4 5 4 2 4 2 3 2 4 2 5 2 1 0 0 1 0 0 1 0 0 0 0 0 0 0 0 0 0 0
0 0 0 0 0 7 12 17 10 7 7 4 1 0 1 3 4 2 3 2 4 2 2 3 3 0 0 0 0 0 1 0 0 0 0 0 0 0 0 1 0 0 0
0 0 0 0 0 2 15 13 15 16 7 1 0 0 1 1 3 2 2 4 4 2 3 2 1 2 2 2 1 0 0 0 1 1 2 1 1 0 0 0 1 2 4
0 0 0 0 0 0 0 2 3 5 4 1 1 1 0 0 0 1 2 3 3 3 4 4 2 2 3 1 0 1 6 13 9 13 9 5 2 0 0 0 2 3 3
0 0 0 0 0 0 0 0 0 0 0 0 0 0 1 0 0 0 0 1 2 2 3 3 4 4 5 5 5 3 3 6 3 6 4 1 0 0 2 3 2 4 6
0 0 0 0 0 0 0 0 0 0 0 0 0 0 0 0 0 0 0 0 0 0 0 1 2 2 2 6 7 9 11 5 3 3 3 2 3 5 4 4 2 5 4
2 0 0 0 0 0 0 0 0 0 0 0 0 0 0 0 0 0 0 0 0 0 0 2 1 2 5 5 5 6 6 5 6 8 6 6 7 6 2 1 3 5 3
1 0 0 0 0 0 0 0 0 0 0 0 0 0 0 0 0 0 0 0 0 0 1 2 2 3 4 4 6 8 6 5 4 6 6 6 8 11 9 6 5 2 2
4 0 0 0 0 0 0 0 0 0 0 0 0 0 0 0 0 0 0 0 1 1 1 2 3 4 4 3 4 7 7 3 2 2 4 4 4 7 5 5 2 0 0
11 0 0 1 0 0 0 0 0 0 0 0 0 0 0 0 0 0 0 0 0 1 2 2 1 2 0 1 1 2 2 5 7 5 4 5 4 5 3 3 1 1 2
8 0 0 4 2 0 0 0 0 0 0 0 0 0 0 0 0 0 0 0 0 0 1 2 4 5 3 1 1 3 3 6 5 2 3 2 5 5 0 1 5 8 4
6 5 3 3 7 1 0 0 0 0 0 0 0 0 0 0 0 0 0 0 0 0 1 2 5 7 7 6 4 2 2 2 6 9 7 6 6 4 4 5 1 0 5
0 0 0 5 3 0 0 0 0 0 0 0 0 0 0 0 0 0 0 0 0 0 0 1 3 3 2 2 1 4 5 3 7 15 9 10 5 9 9 8 7 3 4
0 1 4 1 2 2 0 0 0 0 0 0 0 0 0 0 0 0 0 0 0 0 0 0 1 1 5 5 6 8 2 1 7 7 1 4 6 6 6 8 4 6 7
1 14 2 1 2 0 0 0 0 0 0 0 0 0 0 0 0 0 0 0 0 0 0 0 0 4 6 8 4 1 1 0 1 0 0 3 5 4 5 1 1 3 3
10 10 3 0 0 0 0 0 0 0 0 0 0 0 0 0 0 0 0 0 0 0 0 0 0 4 7 7 7 1 0 0 0 0 2 4 5 6 5 2 3 2 1
CIN
-0 -0 -0 -0 -0 -0 -1 -0 -1 -0 -0 -0 -0 -1 -0 -0 -0 -0 -1 -0 -1 -0 -0 -0 -0 -194 -332 -138 -0 -0 -0 -0 -0 -0 -0 -0 -0 -0 -0 -0 -0 -0 -0
-0 -0 -0 -0 -1 -1 -1 -1 -1 -1 -0 -0 -1 -0 -0 -0 -1 -0 -0 -0 -0 -0 -0 -0 -0 -4 -0 -0 -0 -0 -0 -0 -0 -0 -0 -0 -0 -0 -0 -0 -0 -0 -0
-0 -0 -0 -0 -1 -1 -1 -0 -0 -0 -0 -1 -0 -0 -0 -0 -0 -0 -0 -0 -0 -0 -2 -0 -0 -2 -0 -0 -0 -0 -0 -0 -0 -0 -0 -0 -0 -0 -0 -0 -0 -0 -0
-0 -0 -2 -2 -1 -1 -1 -1 -0 -0 -0 -0 -0 -0 -0 -0 -0 -0 -0 -0 -0 -0 -0 -0 -0 -0 -0 -0 -0 -0 -0 -0 -0 -0 -0 -0 -0 -0 -0 -0 -0 -0 -0
-0 -0 -2 -2 -1 -2 -1 -1 -0 -0 -0 -0 -0 -0 -0 -0 -0 -0 -0 -0 -0 -0 -0 -0 -0 -0 -0 -0 -0 -0 -0 -0 -0 -0 -0 -0 -0 -0 -0 -0 -0 -0 -0
-0 -2 -2 -2 -1 -1 -1 -1 -2 -0 -0 -0 -0 -0 -0 -0 -0 -0 -0 -0 -0 -0 -0 -0 -1 -0 -0 -0 -0 -1 -0 -0 -0 -0 -0 -0 -0 -0 -0 -0 -0 -0 -0
-0 -0 -1 -1 -1 -1 -1 -2 -2 -2 -0 -0 -0 -0 -0 -0 -0 -0 -0 -0 -0 -0 -0 -0 -0 -0 -2 -1 -0 -0 -0 -0 -0 -0 -0 -0 -0 -0 -0 -0 -0 -0 -0
-0 -0 -0 -2 -1 -2 -1 -0 -1 -1 -1 -1 -0 -0 -0 -0 -0 -0 -0 -0 -0 -0 -0 -0 -0 -1 -9 -0 -0 -0 -0 -0 -0 -0 -0 -0 -0 -0 -0 -0 -0 -0 -0
-0 -0 -1 -2 -1 -1 -3 -1 -1 -3 -1 -1 -1 -0 -0 -0 -0 -0 -0 -0 -0 -0 -0 -0 -0 -0 -31 -0 -0 -0 -0 -0 -0 -0 -0 -0 -0 -0 -0 -0 -0 -0 -0
-0 -0 -1 -2 -1 -0 -1 -1 -2 -2 -2 -0 -0 -0 -0 -0 -0 -0 -0 -0 -0 -0 -0 -5 -3 -1 -0 -0 -0 -0 -0 -0 -0 -0 -0 -0 -0 -0 -0 -0 -0 -0 -0
-0 -0 -0 -1 -1 -0 -0 -1 -3 -2 -2 -1 -1 -0 -0 -0 -0 -0 -0 -0 -0 -0 -0 -0 -0 -0 -0 -0 -0 -0 -0 -0 -0 -0 -0 -0 -0 -0 -0 -0 -0 -0 -0
-0 -0 -0 -0 -1 -0 -1 -1 -0 -1 -1 -1 -1 -0 -0 -0 -0 -0 -0 -0 -0 -0 -0 -0 -0 -0 -0 -0 -0 -0 -0 -0 -0 -0 -0 -0 -0 -0 -1 -0 -0 -0 -0
-0 -0 -0 -0 -0 -2 -1 -1 -0 -1 -0 -0 -0 -0 -0 -0 -0 -0 -0 -0 -0 -0 -0 -0 -0 -0 -0 -0 -0 -0 -0 -0 -0 -2 -1 -1 -2 -0 -0 -0 -0 -0 -0
-0 -0 -0 -0 -0 -0 -0 -1 -2 -1 -1 -0 -0 -0 -0 -0 -0 -0 -0 -0 -0 -0 -0 -0 -0 -0 -0 -0 -0 -0 -0 -0 -0 -0 -0 -1 -2 -1 -0 -1 -2 -1 -1
-0 -0 -0 -0 -0 -0 -0 -0 -0 -0 -0 -0 -0 -0 -0 -0 -0 -0 -0 -0 -0 -0 -0 -0 -0 -0 -0 -0 -0 -0 -0 -0 -0 -0 -0 -0 -0 -0 -1 -0 -1 -0 -0
-0 -0 -0 -0 -0 -0 -0 -0 -0 -0 -0 -0 -0 -0 -0 -0 -0 -0 -0 -0 -0 -0 -0 -0 -0 -0 -0 -0 -0 -0 -0 -0 -1 -0 -0 -1 -1 -1 -1 -1 -1 -0 -0
-2 -0 -0 -0 -0 -0 -0 -0 -0 -0 -0 -0 -0 -0 -0 -0 -0 -0 -0 -0 -0 -0 -0 -0 -0 -0 -0 -0 -0 -0 -0 -0 -0 -0 -0 -1 -1 -1 -1 -2 -0 -1 -0
-1 -0 -0 -0 -0 -0 -0 -0 -0 -0 -0 -0 -0 -0 -0 -0 -0 -0 -0 -0 -0 -0 -1 -1 -1 -0 -0 -0 -1 -1 -1 -1 -1 -1 -1 -0 -0 -0 -0 -0 -0 -0 -0
-1 -0 -0 -0 -0 -0 -0 -0 -0 -0 -0 -0 -0 -0 -0 -0 -0 -0 -0 -0 -2 -2 -1 -1 -1 -1 -1 -1 -0 -1 -1 -1 -1 -1 -1 -0 -0 -0 -0 -0 -1 -3 -0
-1 -0 -0 -2 -0 -0 -0 -0 -0 -0 -0 -0 -0 -0 -0 -0 -0 -0 -0 -0 -0 -2 -2 -1 -1 -2 -2 -2 -2 -1 -0 -0 -1 -1 -1 -1 -1 -1 -0 -0 -0 -1 -0
-2 -0 -0 -2 -4 -2 -0 -0 -0 -0 -0 -0 -0 -0 -0 -0 -0 -0 -0 -0 -0 -2 -3 -2 -0 -1 -0 -2 -1 -1 -1 -0 -1 -2 -1 -0 -1 -0 -0 -0 -0 -0 -0
-1 -0 -1 -1 -3 -3 -0 -0 -0 -0 -0 -0 -0 -0 -0 -0 -0 -0 -0 -0 -0 -0 -1 -0 -0 -0 -0 -0 -0 -1 -0 -1 -0 -0 -0 -0 -0 -1 -0 -0 -0 -1 -0
-0 -0 -2 -3 -3 -1 -0 -0 -0 -0 -0 -0 -0 -0 -0 -0 -0 -0 -0 -0 -0 -0 -0 -1 -1 -1 -2 -0 -1 -1 -0 -1 -0 -0 -0 -0 -1 -0 -0 -0 -0 -0 -0
-0 -0 -3 -4 -3 -3 -0 -0 -0 -0 -0 -0 -0 -0 -0 -0 -0 -0 -0 -0 -0 -0 -0 -0 -1 -1 -0 -0 -0 -0 -0 -0 -0 -0 -0 -0 -0 -1 -0 -0 -0 -0 -1
-1 -1 -1 -5 -2 -0 -0 -0 -0 -0 -0 -0 -0 -0 -0 -0 -0 -0 -0 -0 -0 -0 -0 -0 -1 -1 -0 -0 -0 -1 -2 -0 -0 -0 -0 -0 -0 -0 -0 -0 -1 -1 -1
-2 -1 -3 -0 -0 -0 -0 -1 -0 -0 -0 -0 -0 -0 -0 -0 -0 -0 -0 -0 -0 -0 -0 -0 -0 -0 -0 -0 -0 -1 -0 -0 -0 -0 -0 -0 -0 -0 -0 -0 -0 -0 -0
Wind_Speed
37 38 39 40 43 44 45 46 47 48 49 50 51 52 52 52 51 50 49 50 50 48 46 46 45 38 35 33 32 29 28 25 24 20 14 11 10 17 18 20 20 20 16
37 37 38 40 43 45 46 47 47 49 48 49 51 52 53 53 52 52 54 51 52 53 51 48 45 38 37 34 31 30 28 25 23 20 15 12 11 15 16 18 21 22 22
36 37 38 40 42 43 45 47 47 49 49 49 51 52 53 53 53 53 54 52 51 52 52 51 49 41 40 36 33 30 26 23 21 19 16 12 8 9 14 18 19 23 24
35 36 37 39 40 42 44 46 47 49 50 50 50 51 52 53 52 50 53 51 51 50 51 51 49 44 41 38 34 30 27 23 20 17 15 11 9 10 13 19 21 21 22
34 35 36 38 39 41 44 45 47 48 49 50 52 51 52 53 49 53 54 55 54 51 52 52 49 47 43 39 33 30 28 26 23 20 16 13 12 11 13 17 20 18 20
34 34 35 37 39 41 43 46 47 48 50 51 52 52 53 52 53 56 58 58 54 52 50 50 48 48 43 41 37 33 30 28 26 22 18 17 15 13 12 13 17 18 23
33 34 36 37 39 42 43 46 48 49 50 51 53 52 53 53 55 58 60 58 53 48 46 46 45 46 41 41 40 37 31 30 27 24 22 18 15 13 12 12 14 15 19
34 35 37 39 40 42 44 46 47 48 49 51 54 53 52 53 57 58 59 50 50 42 39 41 43 45 37 37 37 36 31 30 27 23 20 17 14 12 10 13 11 15 19
35 36 37 39 41 41 43 45 47 48 48 49 51 54 53 55 58 58 55 47 45 42 35 34 36 40 32 30 33 35 30 26 21 18 15 13 12 12 10 11 15 19 23
36 36 37 38 39 40 42 44 45 46 47 47 49 52 52 53 56 56 51 44 41 37 28 27 30 33 28 26 28 29 27 25 26 21 16 14 13 13 14 18 17 22 23
35 36 37 38 38 38 40 40 42 45 46 47 47 49 52 52 53 54 48 41 37 29 20 14 10 12 15 17 19 22 22 21 19 16 16 16 18 17 19 22 18 18 24
35 36 37 37 38 37 38 39 40 44 45 46 46 48 49 51 46 45 40 37 31 24 16 8 4 3 4 8 12 13 14 16 18 15 17 19 20 17 15 18 19 19 20
35 36 37 36 37 36 37 38 39 42 44 44 44 46 48 48 47 39 36 31 27 22 20 12 9 9 4 2 2 7 11 10 14 16 19 17 15 16 19 19 20 19 19
35 36 37 36 37 37 36 37 38 40 42 42 43 43 45 45 44 37 29 28 23 21 18 16 12 14 9 3 4 5 5 8 14 16 13 16 18 17 18 17 18 18 20
35 36 35 36 37 37 37 37 38 38 38 40 42 41 41 40 40 33 28 24 29 28 22 18 14 13 8 10 10 6 6 9 12 14 15 17 17 16 16 16 18 18 19
35 37 34 35 36 37 37 38 31 33 32 31 35 37 37 32 21 29 28 24 24 21 20 16 15 13 14 11 11 10 10 12 13 14 14 16 15 14 14 17 17 19 19
32 35 34 33 34 37 36 37 39 37 32 28 33 35 36 38 11 10 24 23 24 21 18 17 15 15 15 14 14 14 13 13 13 13 12 14 16 14 15 16 16 17 17
29 30 36 34 33 34 34 36 36 38 40 39 35 34 38 36 20 10 13 21 24 23 21 19 19 18 17 17 17 17 16 16 16 16 16 16 16 16 16 17 18 19 20
25 30 35 34 34 34 35 35 37 36 37 38 38 36 38 34 26 30 33 30 27 25 24 23 23 22 21 21 20 20 19 18 18 18 17 17 18 18 18 19 20 19 20
21 25 29 33 35 36 36 35 35 35 36 37 37 37 39 36 33 31 30 29 29 28 27 26 25 25 23 22 22 20 20 19 18 18 18 18 18 19 19 20 20 21 20
21 25 27 32 34 35 36 36 36 36 36 36 36 35 37 35 34 32 31 30 29 29 29 28 28 27 25 24 23 23 22 21 21 20 20 19 19 19 18 18 20 21 19
19 24 28 33 34 35 36 35 34 34 35 36 36 35 35 33 33 32 31 31 31 31 31 30 29 28 26 25 24 23 23 23 22 21 20 19 19 19 19 19 20 21 21
19 20 24 31 32 35 34 35 33 33 34 35 35 35 34 33 32 31 31 31 31 31 31 31 30 28 25 24 23 23 22 22 22 22 20 20 19 19 19 19 19 18 17
18 19 25 29 31 32 33 32 32 31 33 34 35 34 33 33 32 31 31 31 31 31 32 31 30 29 28 27 26 25 24 23 23 21 21 19 19 19 18 18 18 19 20
15 18 25 27 30 31 31 32 32 32 33 34 34 34 32 31 31 31 31 31 31 32 32 32 30 30 29 29 29 28 26 25 25 26 25 23 22 22 20 20 18 21 24
18 22 25 28 28 30 30 29 28 31 34 34 34 33 32 31 30 30 30 30 31 31 31 30 31 31 31 30 27 25 27 28 27 24 23 16 15 18 18 17 22 26 24
Wind_Direction
334 333 332 331 333 332 329 325 322 319 317 313 310 307 305 302 299 296 292 289 286 284 282 281 278 272 270 271 271 268 266 265 275 287 281 279 257 264 264 263 270 281 291
335 336 336 334 334 335 333 330 327 323 322 317 314 309 306 304 301 296 293 289 285 283 281 278 275 269 267 268 267 262 261 260 266 270 279 284 258 257 253 261 269 280 289
338 338 339 338 337 337 338 337 335 330 327 324 320 316 311 308 303 299 295 289 285 282 279 276 274 264 263 264 263 260 257 258 260 269 273 276 243 224 248 262 272 278 287
340 339 340 339 338 338 338 338 338 337 332 327 325 322 318 313 307 303 302 292 287 283 280 276 272 263 259 258 257 253 250 248 249 257 266 256 236 238 251 260 272 278 286
343 343 343 343 342 342 341 339 339 339 338 336 329 325 322 319 314 307 303 296 290 283 280 275 270 263 257 252 249 245 242 242 241 247 249 242 241 234 247 260 270 279 287
345 345 346 345 345 344 342 341 339 339 338 339 338 332 327 323 317 310 305 297 290 284 279 276 270 265 253 247 242 240 237 237 237 238 243 239 238 243 241 258 272 281 286
346 347 347 346 345 343 343 343 342 340 338 341 340 336 332 327 323 316 309 300 292 284 277 274 272 266 251 249 243 245 232 235 236 232 234 238 236 236 244 257 275 287 296
347 346 345 344 344 344 344 344 345 345 345 344 342 337 333 332 328 322 318 313 303 286 276 272 268 265 249 246 242 241 232 235 235 233 235 237 241 235 245 269 278 292 301
349 349 349 347 346 347 346 346 347 347 348 347 349 339 338 337 336 332 327 322 314 294 279 270 264 261 247 238 239 237 239 228 224 226 228 234 235 247 254 274 284 287 295
351 351 352 352 351 351 350 350 350 349 348 351 350 345 347 344 342 339 335 330 324 314 295 273 262 254 242 234 235 230 235 241 212 212 220 235 243 257 271 281 287 290 297
350 352 352 353 353 355 354 356 354 350 350 352 359 357 353 350 347 347 344 340 337 318 308 287 271 239 229 229 227 230 225 235 233 222 226 236 251 262 274 278 295 306 291
351 352 352 353 354 356 357 356 357 354 352 353 359 359 359 356 344 344 344 344 342 348 341 335 358 128 200 220 221 217 223 238 246 247 241 245 248 264 276 287 297 299 301
353 353 354 355 355 358 356 356 357 355 355 358 1 360 359 2 356 342 344 343 346 348 359 8 28 37 86 78 237 224 236 257 255 246 243 252 258 275 287 294 293 298 302
355 355 356 358 358 358 359 360 358 356 357 360 2 6 355 360 353 342 337 341 344 349 352 357 0 18 23 324 346 277 284 265 258 259 266 272 273 281 289 297 295 297 298
357 357 359 0 359 359 0 359 358 358 1 359 359 2 7 343 345 334 333 334 346 356 357 3 359 8 350 26 26 355 310 293 291 290 285 277 280 287 290 296 297 300 301
357 357 2 3 2 2 2 360 11 8 11 14 10 10 10 21 322 329 331 330 337 338 348 342 345 344 348 324 343 331 321 316 308 303 293 285 288 297 302 298 302 299 302
4 1 5 7 5 3 4 2 359 2 8 16 12 9 8 2 24 338 323 323 337 335 334 330 324 317 313 313 315 322 329 326 324 318 316 301 298 308 309 309 310 310 308
6 8 360 2 5 5 6 3 2 358 352 350 1 6 355 334 312 37 310 322 335 337 330 325 322 321 312 309 312 316 316 314 310 309 308 311 313 314 311 310 307 302 303
3 1 360 1 1 1 1 1 358 359 358 352 347 350 348 326 334 8 356 345 338 332 329 325 321 319 317 317 315 315 314 314 309 309 310 312 312 310 305 301 302 306 307
4 3 2 358 357 357 356 356 357 356 355 353 346 341 338 333 334 331 331 332 335 334 330 327 325 327 327 318 314 323 318 319 320 318 315 314 312 309 306 305 305 307 308
359 359 359 356 355 355 354 352 350 350 349 349 345 344 339 331 332 332 331 330 327 328 327 325 325 323 323 321 319 316 314 316 315 316 317 317 317 313 317 313 306 309 314
356 354 353 352 352 353 351 352 352 352 350 347 343 338 338 331 329 329 328 326 328 333 335 330 328 327 328 328 327 325 319 315 315 319 318 320 319 318 317 315 310 308 310
2 360 355 351 353 352 354 352 355 354 351 345 339 334 330 328 324 322 322 323 325 326 337 336 336 336 336 335 334 333 330 325 322 320 319 316 316 318 319 314 316 319 321
1 0 357 356 355 356 354 357 358 358 355 348 339 329 326 325 321 318 317 318 318 320 324 336 335 334 330 325 328 329 327 326 323 321 316 317 317 317 318 318 316 313 308
9 6 1 1 359 360 360 359 358 355 353 347 341 329 319 315 316 318 319 321 320 319 320 325 331 323 318 308 303 311 320 322 310 304 300 302 304 303 307 308 309 296 282
10 7 4 1 4 3 4 6 7 1 352 344 335 325 319 314 313 312 312 314 313 308 310 312 312 320 316 316 319 327 313 301 296 310 302 300 315 305 307 309 284 260 261